H1 CPF 2 NER 2022 6 25 9 176 01 glonass137 H2 1705501 9137 42939 2022 6 25 0 0 0 2022 6 28 23 45 0 900 1 1 0 0 0 1 H9 10 0 59755 0.00000 0 -10107626.255 15949068.502 17154574.954 10 0 59755 900.00000 0 -11706964.093 17107438.801 14865255.875 10 0 59755 1800.00000 0 -12981343.616 18195574.604 12287215.751 10 0 59755 2700.00000 0 -13924535.532 19153751.813 9470447.166 10 0 59755 3600.00000 0 -14543037.676 19924223.650 6469618.267 10 0 59755 4500.00000 0 -14855560.200 20453741.888 3343013.797 10 0 59755 5400.00000 0 -14892004.517 20695910.111 151402.058 10 0 59755 6300.00000 0 -14691979.278 20613268.707 -3043150.046 10 0 59755 7200.00000 0 -14302916.421 20179022.317 -6178490.177 10 0 59755 8100.00000 0 -13777867.560 19378335.335 -9193597.585 10 0 59755 9000.00000 0 -13173074.709 18209139.303 -12029779.355 10 0 59755 9900.00000 0 -12545419.075 16682416.742 -14631821.470 10 0 59755 10800.00000 0 -11949856.922 14821948.177 -16949071.424 10 0 59755 11700.00000 0 -11436951.967 12663531.969 -18936430.543 10 0 59755 12600.00000 0 -11050609.564 10253708.942 -20555236.098 10 0 59755 13500.00000 0 -10826109.179 7648044.743 -21774015.847 10 0 59755 14400.00000 0 -10788518.746 4909041.395 -22569100.284 10 0 59755 15300.00000 0 -10951558.116 2103765.162 -22925080.875 10 0 59755 16200.00000 0 -11316959.596 -698710.514 -22835105.755 10 0 59755 17100.00000 0 -11874352.386 -3429940.739 -22301007.578 10 0 59755 18000.00000 0 -12601675.536 -6024714.032 -21333261.520 10 0 59755 18900.00000 0 -13466101.648 -8423518.497 -19950774.718 10 0 59755 19800.00000 0 -14425432.017 -10574767.445 -18180511.632 10 0 59755 20700.00000 0 -15429904.074 -12436692.687 -16056962.999 10 0 59755 21600.00000 0 -16424334.575 -13978827.951 -13621468.980 10 0 59755 22500.00000 0 -17350507.988 -15183022.030 -10921409.921 10 0 59755 23400.00000 0 -18149709.105 -16043940.949 -8009280.767 10 0 59755 24300.00000 0 -18765293.013 -16569040.045 -4941667.367 10 0 59755 25200.00000 0 -19145183.948 -16778008.920 -1778144.840 10 0 59755 26100.00000 0 -19244197.707 -16701714.379 1419880.270 10 0 59755 27000.00000 0 -19026089.761 -16380687.403 4590361.347 10 0 59755 27900.00000 0 -18465242.862 -15863219.187 7671813.337 10 0 59755 28800.00000 0 -17547923.171 -15203147.454 10604501.217 10 0 59755 29700.00000 0 -16273052.088 -14457426.953 13331592.523 10 0 59755 30600.00000 0 -14652461.185 -13683586.772 15800251.950 10 0 59755 31500.00000 0 -12710619.265 -12937181.484 17962657.348 10 0 59755 32400.00000 0 -10483842.373 -12269343.063 19776918.242 10 0 59755 33300.00000 0 -8019018.878 -11724535.998 21207879.972 10 0 59755 34200.00000 0 -5371901.728 -11338609.380 22227798.704 10 0 59755 35100.00000 0 -2605037.576 -11137227.196 22816875.111 10 0 59755 36000.00000 0 214582.702 -11134742.382 22963636.993 10 0 59755 36900.00000 0 3018056.129 -11333561.724 22665163.749 10 0 59755 37800.00000 0 5737178.977 -11724028.481 21927148.363 10 0 59755 38700.00000 0 8307030.608 -12284828.183 20763795.305 10 0 59755 39600.00000 0 10668423.821 -12983901.363 19197555.629 10 0 59755 40500.00000 0 12770121.088 -13779825.944 17258703.369 10 0 59755 41400.00000 0 14570725.324 -14623612.224 14984760.268 10 0 59755 42300.00000 0 16040166.856 -15460835.977 12419778.779 10 0 59755 43200.00000 0 17160724.832 -16234020.624 9613496.136 10 0 59755 44100.00000 0 17927540.415 -16885168.506 6620374.922 10 0 59755 45000.00000 0 18348600.175 -17358334.493 3498548.285 10 0 59755 45900.00000 0 18444190.385 -17602132.828 308690.008 10 0 59755 46800.00000 0 18245845.253 -17572070.453 -2887168.433 10 0 59755 47700.00000 0 17794833.630 -17232606.997 -6026850.236 10 0 59755 48600.00000 0 17140248.507 -16558852.919 -9049250.690 10 0 59755 49500.00000 0 16336780.632 -15537832.455 -11895535.044 10 0 59755 50400.00000 0 15442271.127 -14169256.496 -14510292.379 10 0 59755 51300.00000 0 14515147.461 -12465771.284 -16842622.125 10 0 59755 52200.00000 0 13611852.031 -10452671.126 -18847131.337 10 0 59755 53100.00000 0 12784372.815 -8167086.143 -20484822.653 10 0 59755 54000.00000 0 12077981.014 -5656678.268 -21723855.473 10 0 59755 54900.00000 0 11529271.549 -2977899.458 -22540165.479 10 0 59755 55800.00000 0 11164589.232 -193884.560 -22917930.636 10 0 59755 56700.00000 0 10998906.804 2627933.592 -22849875.000 10 0 59755 57600.00000 0 11035201.746 5418387.701 -22337404.853 10 0 59755 58500.00000 0 11264357.589 8109211.675 -21390575.003 10 0 59755 59400.00000 0 11665593.151 10635639.139 -20027886.399 10 0 59755 60300.00000 0 12207400.897 12938857.262 -18275919.359 10 0 59755 61200.00000 0 12848954.104 14968214.423 -16168809.934 10 0 59755 62100.00000 0 13541922.805 16683090.769 -13747579.910 10 0 59755 63000.00000 0 14232621.299 18054354.910 -11059333.664 10 0 59755 63900.00000 0 14864396.098 19065347.252 -8156337.884 10 0 59755 64800.00000 0 15380153.100 19712350.514 -5095002.236 10 0 59755 65700.00000 0 15724917.059 20004529.383 -1934781.069 10 0 59755 66600.00000 0 15848315.086 19963343.484 1262982.141 10 0 59755 67500.00000 0 15706879.305 19621459.955 4436245.001 10 0 59755 68400.00000 0 15266071.475 19021212.702 7523467.796 10 0 59755 69300.00000 0 14501944.233 18212674.267 10464803.111 10 0 59755 70200.00000 0 13402368.935 17251422.213 13203250.577 10 0 59755 71100.00000 0 11967778.254 16196094.395 15685754.783 10 0 59755 72000.00000 0 10211392.033 15105835.986 17864225.567 10 0 59755 72900.00000 0 8158916.326 14037745.256 19696461.726 10 0 59755 73800.00000 0 5847727.290 13044424.835 21146961.122 10 0 59755 74700.00000 0 3325572.937 12171740.527 22187602.342 10 0 59755 75600.00000 0 648845.384 11456880.909 22798185.572 10 0 59755 76500.00000 0 -2119506.158 10926798.307 22966822.823 10 0 59755 77400.00000 0 -4912336.590 10597096.024 22690170.294 10 0 59755 78300.00000 0 -7660844.093 10471408.111 21973498.408 10 0 59755 79200.00000 0 -10297183.582 10541297.720 20830597.785 10 0 59755 80100.00000 0 -12757047.359 10786678.639 19283522.284 10 0 59755 81000.00000 0 -14982107.039 11176742.853 17362173.099 10 0 59755 81900.00000 0 -16922216.109 11671355.899 15103730.773 10 0 59755 82800.00000 0 -18537281.870 12222862.087 12551944.954 10 0 59755 83700.00000 0 -19798728.949 12778224.188 9756294.508 10 0 59755 84600.00000 0 -20690493.197 13281407.807 6771033.319 10 0 59755 85500.00000 0 -21209504.101 13675909.872 3654139.766 10 0 59756 0.00000 0 -21365635.299 13907324.065 466190.283 10 0 59756 900.00000 0 -21181125.090 13925834.087 -2730822.693 10 0 59756 1800.00000 0 -20689491.179 13688527.937 -5874700.501 10 0 59756 2700.00000 0 -19933985.856 13161434.322 -8904257.211 10 0 59756 3600.00000 0 -18965656.903 12321193.114 -11760518.782 10 0 59756 4500.00000 0 -17841096.805 11156287.803 -14387879.692 10 0 59756 5400.00000 0 -16619976.026 9667786.227 -16735193.341 10 0 59756 6300.00000 0 -15362465.224 7869556.828 -18756774.210 10 0 59756 7200.00000 0 -14126655.947 5787950.059 -20413291.648 10 0 59756 8100.00000 0 -12966089.151 3460957.195 -21672537.654 10 0 59756 9000.00000 0 -11927496.085 936880.917 -22510053.680 10 0 59756 9900.00000 0 -11048846.758 -1727427.256 -22909604.392 10 0 59756 10800.00000 0 -10357787.959 -4468689.617 -22863489.599 10 0 59756 11700.00000 0 -9870536.012 -7219596.802 -22372688.677 10 0 59756 12600.00000 0 -9591270.120 -9911374.666 -21446835.205 10 0 59756 13500.00000 0 -9512050.845 -12476416.994 -20104022.744 10 0 59756 14400.00000 0 -9613266.082 -14850874.850 -18370445.974 10 0 59756 15300.00000 0 -9864584.610 -16977095.222 -16279884.519 10 0 59756 16200.00000 0 -10226375.952 -18805808.130 -13873039.828 10 0 59756 17100.00000 0 -10651535.632 -20297971.917 -11196738.218 10 0 59756 18000.00000 0 -11087637.947 -21426200.729 -8303015.931 10 0 59756 18900.00000 0 -11479324.610 -22175715.870 -5248104.210 10 0 59756 19800.00000 0 -11770827.814 -22544782.605 -2091334.386 10 0 59756 20700.00000 0 -11908520.717 -22544615.561 1106015.401 10 0 59756 21600.00000 0 -11843387.333 -22198758.181 4281909.247 10 0 59756 22500.00000 0 -11533307.384 -21541963.619 7374755.083 10 0 59756 23400.00000 0 -10945059.574 -20618625.199 10324595.408 10 0 59756 24300.00000 0 -10055958.768 -19480823.282 13074264.265 10 0 59756 25200.00000 0 -8855057.915 -18186071.052 15570488.413 10 0 59756 26100.00000 0 -7343863.931 -16794854.083 17764911.858 10 0 59756 27000.00000 0 -5536536.925 -15368066.694 19615024.682 10 0 59756 27900.00000 0 -3459563.595 -13964452.074 21084979.067 10 0 59756 28800.00000 0 -1150917.384 -12638152.704 22146277.561 10 0 59756 29700.00000 0 1341260.945 -11436472.713 22778321.094 10 0 59756 30600.00000 0 3960409.063 -10397944.869 22968806.800 10 0 59756 31500.00000 0 6643644.180 -9550782.259 22713968.267 10 0 59756 32400.00000 0 9324134.140 -8911778.743 22018653.630 10 0 59756 33300.00000 0 11933641.765 -8485703.758 20896239.613 10 0 59756 34200.00000 0 14405138.331 -8265216.717 19368382.522 10 0 59756 35100.00000 0 16675378.930 -8231304.688 17464610.034 10 0 59756 36000.00000 0 18687333.609 -8354225.296 15221760.471 10 0 59756 36900.00000 0 20392373.559 -8594915.704 12683279.287 10 0 59756 37800.00000 0 21752121.431 -8906808.763 9898385.206 10 0 59756 38700.00000 0 22739888.392 -9237980.107 6921121.240 10 0 59756 39600.00000 0 23341637.376 -9533535.619 3809308.441 10 0 59756 40500.00000 0 23556431.746 -9738138.136 623422.433 10 0 59756 41400.00000 0 23396350.076 -9798565.882 -2574585.365 10 0 59756 42300.00000 0 22885870.294 -9666193.400 -5722498.281 10 0 59756 43200.00000 0 22060749.021 -9299288.658 -8759052.459 10 0 59756 44100.00000 0 20966443.393 -8665027.589 -11625137.777 10 0 59756 45000.00000 0 19656142.264 -7741139.221 -14264957.163 10 0 59756 45900.00000 0 18188490.303 -6517110.178 -16627120.800 10 0 59756 46800.00000 0 16625101.560 -4994896.101 -18665653.150 10 0 59756 47700.00000 0 15027967.900 -3189108.571 -20340892.539 10 0 59756 48600.00000 0 13456872.004 -1126668.384 -21620265.528 10 0 59756 49500.00000 0 11966914.116 1154061.344 -22478920.955 10 0 59756 50400.00000 0 10606256.663 3604626.676 -22900211.460 10 0 59756 51300.00000 0 9414181.309 6168263.080 -22876013.481 10 0 59756 52200.00000 0 8419539.479 8782030.519 -22406879.979 10 0 59756 53100.00000 0 7639660.620 11379214.579 -21502023.360 10 0 59756 54000.00000 0 7079762.908 13891893.906 -20179129.438 10 0 59756 54900.00000 0 6732889.851 16253567.272 -18464006.466 10 0 59756 55800.00000 0 6580374.025 18401731.089 -16390076.416 10 0 59756 56700.00000 0 6592806.988 20280300.455 -13997718.749 10 0 59756 57600.00000 0 6731473.069 21841773.349 -11333479.642 10 0 59756 58500.00000 0 6950185.350 23049048.369 -8449162.411 10 0 59756 59400.00000 0 7197445.199 23876821.020 -5400817.030 10 0 59756 60300.00000 0 7418833.272 24312501.237 -2247648.655 10 0 59756 61200.00000 0 7559530.255 24356614.882 949133.281 10 0 59756 62100.00000 0 7566860.340 24022673.656 4127502.862 10 0 59756 63000.00000 0 7392749.624 23336520.058 7225819.173 10 0 59756 63900.00000 0 6995995.447 22335175.947 10184018.049 10 0 59756 64800.00000 0 6344250.761 21065243.853 12944771.187 10 0 59756 65700.00000 0 5415639.745 19580928.665 15454590.520 10 0 59756 66600.00000 0 4199936.441 17941762.861 17664856.932 10 0 59756 67500.00000 0 2699256.455 16210130.461 19532754.185 10 0 59756 68400.00000 0 928232.012 14448692.872 21022090.832 10 0 59756 69300.00000 0 -1086337.890 12717823.561 22103995.040 10 0 59756 70200.00000 0 -3306348.891 11073157.830 22757469.733 10 0 59756 71100.00000 0 -5683729.895 9563358.917 22969797.962 10 0 59756 72000.00000 0 -8162204.822 8228192.711 22736791.009 10 0 59756 72900.00000 0 -10679406.062 7096990.476 22062874.481 10 0 59756 73800.00000 0 -13169253.631 6187563.007 20961010.405 10 0 59756 74700.00000 0 -15564502.701 5505611.136 19452456.165 10 0 59756 75600.00000 0 -17799355.067 5044656.940 17566363.991 10 0 59756 76500.00000 0 -19812026.967 4786498.481 15339227.563 10 0 59756 77400.00000 0 -21547166.880 4702169.158 12814185.292 10 0 59756 78300.00000 0 -22958022.723 4753361.498 10040192.594 10 0 59756 79200.00000 0 -24008267.790 4894255.574 7071078.246 10 0 59756 80100.00000 0 -24673408.508 5073674.947 3964502.530 10 0 59756 81000.00000 0 -24941714.405 5237478.816 780837.108 10 0 59756 81900.00000 0 -24814630.547 5331088.649 -2418011.527 10 0 59756 82800.00000 0 -24306654.443 5302041.507 -5569811.607 10 0 59756 83700.00000 0 -23444682.127 5102460.769 -8613224.361 10 0 59756 84600.00000 0 -22266850.697 4691338.210 -11489006.386 10 0 59756 85500.00000 0 -20820926.072 4036529.275 -14141171.594 10 0 59757 0.00000 0 -19162304.266 3116375.591 -16518088.985 10 0 59757 900.00000 0 -17351709.817 1920884.016 -18573495.304 10 0 59757 1800.00000 0 -15452690.999 452412.270 -20267399.065 10 0 59757 2700.00000 0 -13529014.641 -1274170.721 -21566862.372 10 0 59757 3600.00000 0 -11642072.496 -3231856.500 -22446641.952 10 0 59757 4500.00000 0 -9848407.354 -5382386.523 -22889678.427 10 0 59757 5400.00000 0 -8197462.610 -7677622.749 -22887424.431 10 0 59757 6300.00000 0 -6729649.119 -10061342.619 -22440005.645 10 0 59757 7200.00000 0 -5474809.578 -12471383.742 -21556212.074 10 0 59757 8100.00000 0 -4451143.635 -14842049.035 -20253320.247 10 0 59757 9000.00000 0 -3664637.359 -17106672.242 -18556750.182 10 0 59757 9900.00000 0 -3109019.456 -19200236.925 -16499564.200 10 0 59757 10800.00000 0 -2766244.351 -21061939.975 -14121817.630 10 0 59757 11700.00000 0 -2607480.083 -22637592.979 -11469774.288 10 0 59757 12600.00000 0 -2594557.818 -23881761.569 -8595002.310 10 0 59757 13500.00000 0 -2681820.381 -24759553.961 -5553368.160 10 0 59757 14400.00000 0 -2818290.530 -25247984.605 -2403948.620 10 0 59757 15300.00000 0 -2950066.394 -25336856.699 792117.740 10 0 59757 16200.00000 0 -3022842.090 -25029127.559 3972817.106 10 0 59757 17100.00000 0 -2984446.470 -24340742.482 7076461.794 10 0 59757 18000.00000 0 -2787292.439 -23299944.960 10042883.037 10 0 59757 18900.00000 0 -2390633.225 -21946092.931 12814592.221 10 0 59757 19800.00000 0 -1762530.325 -20328031.159 15337888.437 10 0 59757 20700.00000 0 -881450.084 -18502088.161 17563891.344 10 0 59757 21600.00000 0 262578.534 -16529781.395 19449480.144 10 0 59757 22500.00000 0 1667294.074 -14475326.174 20958121.331 10 0 59757 23400.00000 0 3318049.421 -12403051.635 22060570.034 10 0 59757 24300.00000 0 5188182.811 -10374830.601 22735432.260 10 0 59757 25200.00000 0 7239898.897 -8447629.305 22969577.787 10 0 59757 26100.00000 0 9425624.674 -6671277.963 22758396.112 10 0 59757 27000.00000 0 11689785.553 -5086553.930 22105890.570 10 0 59757 27900.00000 0 13970929.468 -3723656.277 21024608.474 10 0 59757 28800.00000 0 16204112.282 -2601134.696 19535408.007 10 0 59757 29700.00000 0 18323446.703 -1725316.823 17667065.404 10 0 59757 30600.00000 0 20264709.757 -1090257.578 15455728.870 10 0 59757 31500.00000 0 21967900.808 -678212.546 12944228.640 10 0 59757 32400.00000 0 23379643.687 -460615.430 10181255.369 10 0 59757 33300.00000 0 24455332.438 -399518.495 7220421.786 10 0 59757 34200.00000 0 25160930.284 -449435.214 4119225.250 10 0 59757 35100.00000 0 25474345.676 -559507.097 937930.986 10 0 59757 36000.00000 0 25386326.741 -675902.626 -2261602.192 10 0 59757 36900.00000 0 24900835.569 -744346.022 -5417130.339 10 0 59757 37800.00000 0 24034885.826 -712667.738 -8467242.779 10 0 59757 38700.00000 0 22817849.835 -533267.363 -11352565.810 10 0 59757 39600.00000 0 21290263.982 -165383.198 -14016927.208 10 0 59757 40500.00000 0 19502182.583 422929.110 -16408457.899 10 0 59757 41400.00000 0 17511149.547 1253194.092 -18480608.555 10 0 59757 42300.00000 0 15379873.418 2335359.287 -20193060.639 10 0 59757 43200.00000 0 13173703.741 3667133.515 -21512513.876 10 0 59757 44100.00000 0 10958014.883 5233849.617 -22413334.737 10 0 59757 45000.00000 0 8795607.167 7008858.367 -22878053.439 10 0 59757 45900.00000 0 6744234.011 8954437.736 -22897700.136 10 0 59757 46800.00000 0 4854358.154 11023180.011 -22471974.232 10 0 59757 47700.00000 0 3167230.142 13159798.984 -21609243.956 10 0 59757 48600.00000 0 1713368.379 15303281.934 -20326376.758 10 0 59757 49500.00000 0 511502.913 17389296.610 -18648404.185 10 0 59757 50400.00000 0 -431974.346 19352752.699 -16608028.194 10 0 59757 51300.00000 0 -1123031.827 21130410.868 -14244978.795 10 0 59757 52200.00000 0 -1579493.847 22663430.495 -11605235.778 10 0 59757 53100.00000 0 -1830032.582 23899749.718 -8740129.982 10 0 59757 54000.00000 0 -1912700.697 24796198.567 -5705341.832 10 0 59757 54900.00000 0 -1873068.047 25320257.159 -2559816.838 10 0 59757 55800.00000 0 -1762042.404 25451385.825 635380.478 10 0 59757 56700.00000 0 -1633467.305 25181872.119 3818251.793 10 0 59757 57600.00000 0 -1541599.237 24517159.859 6927066.158 10 0 59757 58500.00000 0 -1538571.247 23475647.094 9901553.722 10 0 59757 59400.00000 0 -1671950.329 22087962.074 12684069.005 10 0 59757 60300.00000 0 -1982491.831 20395747.875 15220701.555 10 0 59757 61200.00000 0 -2502185.530 18450006.781 17462312.908 10 0 59757 62100.00000 0 -3252675.785 16309073.464 19365480.550 10 0 59757 63000.00000 0 -4244122.391 14036301.138 20893331.464 10 0 59757 63900.00000 0 -5474550.390 11697556.507 22016249.946 10 0 59757 64800.00000 0 -6929716.848 9358626.847 22712446.886 10 0 59757 65700.00000 0 -8583501.232 7082645.972 22968380.149 10 0 59757 66600.00000 0 -10398804.411 4927644.947 22779018.296 10 0 59757 67500.00000 0 -12328920.328 2944328.125 22147942.675 10 0 59757 68400.00000 0 -14319324.884 1174165.839 21087285.574 10 0 59757 69300.00000 0 -16309809.066 -352117.815 19617505.034 10 0 59757 70200.00000 0 -18236868.998 -1615599.884 17766999.738 10 0 59757 71100.00000 0 -20036254.471 -2609712.752 15571570.280 10 0 59757 72000.00000 0 -21645570.443 -3340274.711 13073736.061 10 0 59757 72900.00000 0 -23006823.246 -3824995.914 10321919.886 10 0 59757 73800.00000 0 -24068804.948 -4092480.579 7369515.041 10 0 59757 74700.00000 0 -24789215.490 -4180767.531 4273852.358 10 0 59757 75600.00000 0 -25136432.754 -4135470.913 1095086.943 10 0 59757 76500.00000 0 -25090855.195 -4007599.990 -2104973.750 10 0 59757 77400.00000 0 -24645759.367 -3851150.916 -5264077.195 10 0 59757 78300.00000 0 -23807635.182 -3720573.279 -8320744.258 10 0 59757 79200.00000 0 -22595983.767 -3668219.887 -11215474.203 10 0 59757 80100.00000 0 -21042585.672 -3741889.082 -13891911.671 10 0 59757 81000.00000 0 -19190269.731 -3982565.055 -16297952.004 10 0 59757 81900.00000 0 -17091234.068 -4422453.237 -18386762.528 10 0 59757 82800.00000 0 -14804989.814 -5083395.111 -20117699.256 10 0 59757 83700.00000 0 -12396013.897 -5975730.668 -21457100.828 10 0 59757 84600.00000 0 -9931209.430 -7097657.518 -22378944.178 10 0 59757 85500.00000 0 -7477280.172 -8435114.482 -22865349.233 10 0 59758 0.00000 0 -5098128.963 -9962195.099 -22906923.240 10 0 59758 900.00000 0 -2852387.258 -11642075.042 -22502938.368 10 0 59758 1800.00000 0 -791181.602 -13428412.694 -21661339.649 10 0 59758 2700.00000 0 1043774.933 -15267167.153 -20398583.680 10 0 59758 3600.00000 0 2621684.630 -17098755.556 -18739311.488 10 0 59758 4500.00000 0 3923700.359 -18860460.171 -16715862.396 10 0 59758 5400.00000 0 4943452.416 -20488984.342 -14367638.675 10 0 59758 6300.00000 0 5687046.859 -21923050.252 -11740333.574 10 0 59758 7200.00000 0 6172537.343 -23105929.676 -8885038.070 10 0 59758 8100.00000 0 6428894.647 -23987801.813 -5857243.971 10 0 59758 9000.00000 0 6494519.093 -24527839.544 -2715762.968 10 0 59758 9900.00000 0 6415360.115 -24695936.872 478416.954 10 0 59758 10800.00000 0 6242723.662 -24474005.520 3663315.369 10 0 59758 11700.00000 0 6030860.974 -23856786.692 6777160.370 10 0 59758 12600.00000 0 5834441.275 -22852144.403 9759583.203 10 0 59758 13500.00000 0 5706015.433 -21480828.473 12552783.567 10 0 59758 14400.00000 0 5693577.832 -19775717.316 15102643.344 10 0 59758 15300.00000 0 5838329.222 -17780572.302 17359767.625 10 0 59758 16200.00000 0 6172734.723 -15548355.507 19280433.637 10 0 59758 17100.00000 0 6718958.682 -13139180.533 20827430.043 10 0 59758 18000.00000 0 7487742.228 -10617981.080 21970771.224 10 0 59758 18900.00000 0 8477771.024 -8051993.258 22688273.586 10 0 59758 19800.00000 0 9675560.372 -5508155.049 22965983.421 10 0 59758 20700.00000 0 11055863.441 -3050529.722 22798448.430 10 0 59758 21600.00000 0 12582586.843 -737858.802 22188827.798 10 0 59758 22500.00000 0 14210176.781 1378655.082 21148838.390 10 0 59758 23400.00000 0 15885419.401 3257244.388 19698537.506 10 0 59758 24300.00000 0 17549581.692 4867073.994 17865945.491 10 0 59758 25200.00000 0 19140804.810 6189278.020 15686514.344 10 0 59758 26100.00000 0 20596650.726 7217493.284 13202451.456 10 0 59758 27000.00000 0 21856696.205 7957867.450 10461910.385 10 0 59758 27900.00000 0 22865065.598 8428541.734 7518063.346 10 0 59758 28800.00000 0 23572795.770 8658630.018 4428072.770 10 0 59758 29700.00000 0 23939933.135 8686737.632 1251981.535 10 0 59758 30600.00000 0 23937273.523 8559082.625 -1948456.569 10 0 59758 31500.00000 0 23547670.369 8327299.456 -5110982.890 10 0 59758 32400.00000 0 22766854.817 8046018.766 -8174052.361 10 0 59758 33300.00000 0 21603731.877 7770326.672 -11078039.721 10 0 59758 34200.00000 0 20080139.071 7553212.303 -13766408.925 10 0 59758 35100.00000 0 18230076.804 7443112.910 -16186822.060 10 0 59758 36000.00000 0 16098442.197 7481661.718 -18292165.300 10 0 59758 36900.00000 0 13739319.200 7701735.007 -20041471.262 10 0 59758 37800.00000 0 11213896.548 8125882.005 -21400719.430 10 0 59758 38700.00000 0 8588100.670 8765204.816 -22343498.996 10 0 59758 39600.00000 0 5930042.670 9618736.293 -22851521.266 10 0 59758 40500.00000 0 3307385.909 10673342.560 -22914972.025 10 0 59758 41400.00000 0 784743.833 11904154.651 -22532697.430 10 0 59758 42300.00000 0 -1578783.766 13275511.203 -21712220.286 10 0 59758 43200.00000 0 -3731834.139 14742372.708 -20469586.890 10 0 59758 44100.00000 0 -5632672.907 16252147.853 -18829047.858 10 0 59758 45000.00000 0 -7250675.695 17746855.193 -16822579.536 10 0 59758 45900.00000 0 -8567339.866 19165529.281 -14489255.645 10 0 59758 46800.00000 0 -9576785.843 20446770.167 -11874481.625 10 0 59758 47700.00000 0 -10285728.983 21531329.082 -9029106.900 10 0 59758 48600.00000 0 -10712925.182 22364621.724 -6008432.578 10 0 59758 49500.00000 0 -10888115.489 22899063.580 -2871134.119 10 0 59758 50400.00000 0 -10850515.861 23096129.278 321879.746 10 0 59758 51300.00000 0 -10646917.271 22928049.633 3508649.443 10 0 59758 52200.00000 0 -10329477.522 22379075.317 6627365.240 10 0 59758 53100.00000 0 -9953298.793 21446254.351 9617562.737 10 0 59758 54000.00000 0 -9573893.732 20139690.968 12421290.126 10 0 59758 54900.00000 0 -9244647.215 18482275.087 14984224.939 10 0 59758 55800.00000 0 -9014380.758 16508893.622 17256719.063 10 0 59758 56700.00000 0 -8925122.028 14265156.285 19194752.567 10 0 59758 57600.00000 0 -9010173.069 11805688.433 20760778.708 10 0 59758 58500.00000 0 -9292558.242 9192061.300 21924444.594 10 0 59758 59400.00000 0 -9783917.051 6490444.602 22663174.450 10 0 59758 60300.00000 0 -10483888.486 3769077.736 22962604.894 10 0 59758 61200.00000 0 -11380013.238 1095663.225 22816864.191 10 0 59758 62100.00000 0 -12448158.694 -1465210.926 22228690.249 10 0 59758 63000.00000 0 -13653450.084 -3854514.426 21209384.802 10 0 59758 63900.00000 0 -14951670.067 -6020983.204 19778604.082 10 0 59758 64800.00000 0 -16291069.610 -7923002.554 17963989.137 10 0 59758 65700.00000 0 -17614515.616 -9530087.421 15800641.808 10 0 59758 66600.00000 0 -18861886.407 -10823898.606 13330455.339 10 0 59758 67500.00000 0 -19972615.348 -11798752.886 10601311.415 10 0 59758 68400.00000 0 -20888276.183 -12461605.894 7666158.141 10 0 59758 69300.00000 0 -21555101.239 -12831508.579 4581986.205 10 0 59758 70200.00000 0 -21926325.971 -12938560.283 1408722.704 10 0 59758 71100.00000 0 -21964260.151 -12822402.801 -1791935.917 10 0 59758 72000.00000 0 -21641997.085 -12530319.340 -4957728.608 10 0 59758 72900.00000 0 -20944687.375 -12115019.368 -8027048.075 10 0 59758 73800.00000 0 -19870322.025 -11632203.841 -10940148.153 10 0 59758 74700.00000 0 -18429990.465 -11138014.824 -13640315.573 10 0 59758 75600.00000 0 -16647601.398 -10686478.562 -16074982.379 10 0 59758 76500.00000 0 -14559077.195 -10327051.298 -18196756.475 10 0 59758 77400.00000 0 -12211054.991 -10102372.737 -19964349.514 10 0 59758 78300.00000 0 -9659148.447 -10046323.011 -21343383.734 10 0 59758 79200.00000 0 -6965842.688 -10182465.970 -22307061.890 10 0 59758 80100.00000 0 -4198110.309 -10522944.996 -22836687.329 10 0 59758 81000.00000 0 -1424847.846 -11067878.185 -22922024.425 10 0 59758 81900.00000 0 1285760.598 -11805278.492 -22561492.785 10 0 59758 82800.00000 0 3868842.950 -12711502.091 -21762191.892 10 0 59758 83700.00000 0 6265294.298 -13752205.918 -20539756.240 10 0 59758 84600.00000 0 8423986.093 -14883773.821 -18918044.169 10 0 59758 85500.00000 0 10303638.359 -16055151.023 -16928666.879 99